<?xml version="1.0"?>
<gpx xmlns="http://www.topografix.com/GPX/1/1" xmlns:xsi="http://www.w3.org/2001/XMLSchema-instance" version="1.1" creator="GPX RubyGem 1.0.0 -- http://dougfales.github.io/gpx/" xsi:schemaLocation="http://www.topografix.com/GPX/1/1 http://www.topografix.com/GPX/1/1/gpx.xsd">
  <metadata>
    <name/>
    <time>2026-05-08T04:14:08+00:00</time>
    <bound minlat="90.0" minlon="180.0" maxlat="-90.0" maxlon="-180.0"/>
  </metadata>
  <trk>
    <name/>
    <trkseg>
      <trkpt lat="45.82399" lon="9.211767">
        <time>1970-01-01T00:00:00+00:00</time>
        <ele>555.0</ele>
      </trkpt>
      <trkpt lat="45.824112" lon="9.211701">
        <time>1970-01-01T00:00:00+00:00</time>
        <ele>554.0</ele>
      </trkpt>
      <trkpt lat="45.824073" lon="9.211566">
        <time>1970-01-01T00:00:00+00:00</time>
        <ele>556.0</ele>
      </trkpt>
      <trkpt lat="45.824058" lon="9.211505">
        <time>1970-01-01T00:00:00+00:00</time>
        <ele>557.0</ele>
      </trkpt>
      <trkpt lat="45.823766" lon="9.211643">
        <time>1970-01-01T00:00:00+00:00</time>
        <ele>563.0</ele>
      </trkpt>
      <trkpt lat="45.823762" lon="9.211566">
        <time>1970-01-01T00:00:00+00:00</time>
        <ele>565.0</ele>
      </trkpt>
      <trkpt lat="45.82378" lon="9.211531">
        <time>1970-01-01T00:00:00+00:00</time>
        <ele>564.0</ele>
      </trkpt>
      <trkpt lat="45.82402" lon="9.21143">
        <time>1970-01-01T00:00:00+00:00</time>
        <ele>559.0</ele>
      </trkpt>
      <trkpt lat="45.824091" lon="9.211446">
        <time>1970-01-01T00:00:00+00:00</time>
        <ele>558.0</ele>
      </trkpt>
      <trkpt lat="45.824208" lon="9.211476">
        <time>1970-01-01T00:00:00+00:00</time>
        <ele>558.0</ele>
      </trkpt>
      <trkpt lat="45.824288" lon="9.211451">
        <time>1970-01-01T00:00:00+00:00</time>
        <ele>559.0</ele>
      </trkpt>
      <trkpt lat="45.824324" lon="9.211386">
        <time>1970-01-01T00:00:00+00:00</time>
        <ele>561.0</ele>
      </trkpt>
      <trkpt lat="45.824304" lon="9.211256">
        <time>1970-01-01T00:00:00+00:00</time>
        <ele>563.0</ele>
      </trkpt>
      <trkpt lat="45.824328" lon="9.211068">
        <time>1970-01-01T00:00:00+00:00</time>
        <ele>567.0</ele>
      </trkpt>
      <trkpt lat="45.824295" lon="9.210814">
        <time>1970-01-01T00:00:00+00:00</time>
        <ele>573.0</ele>
      </trkpt>
      <trkpt lat="45.824228" lon="9.210759">
        <time>1970-01-01T00:00:00+00:00</time>
        <ele>570.0</ele>
      </trkpt>
      <trkpt lat="45.824159" lon="9.210619">
        <time>1970-01-01T00:00:00+00:00</time>
        <ele>569.0</ele>
      </trkpt>
      <trkpt lat="45.824004" lon="9.210007">
        <time>1970-01-01T00:00:00+00:00</time>
        <ele>569.0</ele>
      </trkpt>
      <trkpt lat="45.823884" lon="9.20936">
        <time>1970-01-01T00:00:00+00:00</time>
        <ele>572.0</ele>
      </trkpt>
      <trkpt lat="45.823884" lon="9.208842">
        <time>1970-01-01T00:00:00+00:00</time>
        <ele>578.0</ele>
      </trkpt>
      <trkpt lat="45.823769" lon="9.208299">
        <time>1970-01-01T00:00:00+00:00</time>
        <ele>572.0</ele>
      </trkpt>
      <trkpt lat="45.823601" lon="9.207893">
        <time>1970-01-01T00:00:00+00:00</time>
        <ele>565.0</ele>
      </trkpt>
      <trkpt lat="45.823505" lon="9.20728">
        <time>1970-01-01T00:00:00+00:00</time>
        <ele>561.0</ele>
      </trkpt>
      <trkpt lat="45.823553" lon="9.206736">
        <time>1970-01-01T00:00:00+00:00</time>
        <ele>562.0</ele>
      </trkpt>
      <trkpt lat="45.823667" lon="9.206431">
        <time>1970-01-01T00:00:00+00:00</time>
        <ele>564.0</ele>
      </trkpt>
      <trkpt lat="45.82369" lon="9.206256">
        <time>1970-01-01T00:00:00+00:00</time>
        <ele>562.0</ele>
      </trkpt>
      <trkpt lat="45.823737" lon="9.206157">
        <time>1970-01-01T00:00:00+00:00</time>
        <ele>563.0</ele>
      </trkpt>
      <trkpt lat="45.823853" lon="9.206128">
        <time>1970-01-01T00:00:00+00:00</time>
        <ele>570.0</ele>
      </trkpt>
      <trkpt lat="45.823926" lon="9.206062">
        <time>1970-01-01T00:00:00+00:00</time>
        <ele>573.0</ele>
      </trkpt>
      <trkpt lat="45.823932" lon="9.20578">
        <time>1970-01-01T00:00:00+00:00</time>
        <ele>564.0</ele>
      </trkpt>
      <trkpt lat="45.823987" lon="9.20567">
        <time>1970-01-01T00:00:00+00:00</time>
        <ele>564.0</ele>
      </trkpt>
      <trkpt lat="45.824443" lon="9.20519">
        <time>1970-01-01T00:00:00+00:00</time>
        <ele>572.0</ele>
      </trkpt>
      <trkpt lat="45.824672" lon="9.204998">
        <time>1970-01-01T00:00:00+00:00</time>
        <ele>578.0</ele>
      </trkpt>
      <trkpt lat="45.824931" lon="9.204879">
        <time>1970-01-01T00:00:00+00:00</time>
        <ele>584.0</ele>
      </trkpt>
      <trkpt lat="45.825052" lon="9.204879">
        <time>1970-01-01T00:00:00+00:00</time>
        <ele>590.0</ele>
      </trkpt>
      <trkpt lat="45.825211" lon="9.204787">
        <time>1970-01-01T00:00:00+00:00</time>
        <ele>592.0</ele>
      </trkpt>
      <trkpt lat="45.825345" lon="9.204746">
        <time>1970-01-01T00:00:00+00:00</time>
        <ele>595.0</ele>
      </trkpt>
      <trkpt lat="45.825498" lon="9.204531">
        <time>1970-01-01T00:00:00+00:00</time>
        <ele>591.0</ele>
      </trkpt>
      <trkpt lat="45.825712" lon="9.204412">
        <time>1970-01-01T00:00:00+00:00</time>
        <ele>599.0</ele>
      </trkpt>
      <trkpt lat="45.825852" lon="9.204238">
        <time>1970-01-01T00:00:00+00:00</time>
        <ele>600.0</ele>
      </trkpt>
      <trkpt lat="45.825999" lon="9.204115">
        <time>1970-01-01T00:00:00+00:00</time>
        <ele>602.0</ele>
      </trkpt>
      <trkpt lat="45.826098" lon="9.203932">
        <time>1970-01-01T00:00:00+00:00</time>
        <ele>600.0</ele>
      </trkpt>
      <trkpt lat="45.826318" lon="9.203684">
        <time>1970-01-01T00:00:00+00:00</time>
        <ele>604.0</ele>
      </trkpt>
      <trkpt lat="45.826426" lon="9.203597">
        <time>1970-01-01T00:00:00+00:00</time>
        <ele>607.0</ele>
      </trkpt>
      <trkpt lat="45.826544" lon="9.203552">
        <time>1970-01-01T00:00:00+00:00</time>
        <ele>612.0</ele>
      </trkpt>
      <trkpt lat="45.82663" lon="9.203414">
        <time>1970-01-01T00:00:00+00:00</time>
        <ele>612.0</ele>
      </trkpt>
      <trkpt lat="45.826755" lon="9.203291">
        <time>1970-01-01T00:00:00+00:00</time>
        <ele>613.0</ele>
      </trkpt>
      <trkpt lat="45.82686" lon="9.202989">
        <time>1970-01-01T00:00:00+00:00</time>
        <ele>604.0</ele>
      </trkpt>
      <trkpt lat="45.827064" lon="9.202591">
        <time>1970-01-01T00:00:00+00:00</time>
        <ele>600.0</ele>
      </trkpt>
      <trkpt lat="45.827236" lon="9.202362">
        <time>1970-01-01T00:00:00+00:00</time>
        <ele>600.0</ele>
      </trkpt>
      <trkpt lat="45.827609" lon="9.20211">
        <time>1970-01-01T00:00:00+00:00</time>
        <ele>600.0</ele>
      </trkpt>
      <trkpt lat="45.827855" lon="9.202">
        <time>1970-01-01T00:00:00+00:00</time>
        <ele>601.0</ele>
      </trkpt>
      <trkpt lat="45.827995" lon="9.201913">
        <time>1970-01-01T00:00:00+00:00</time>
        <ele>601.0</ele>
      </trkpt>
      <trkpt lat="45.82811" lon="9.201721">
        <time>1970-01-01T00:00:00+00:00</time>
        <ele>599.0</ele>
      </trkpt>
      <trkpt lat="45.828314" lon="9.201492">
        <time>1970-01-01T00:00:00+00:00</time>
        <ele>600.0</ele>
      </trkpt>
      <trkpt lat="45.828392" lon="9.201443">
        <time>1970-01-01T00:00:00+00:00</time>
        <ele>602.0</ele>
      </trkpt>
      <trkpt lat="45.828949" lon="9.201155">
        <time>1970-01-01T00:00:00+00:00</time>
        <ele>609.0</ele>
      </trkpt>
      <trkpt lat="45.829019" lon="9.200984">
        <time>1970-01-01T00:00:00+00:00</time>
        <ele>607.0</ele>
      </trkpt>
      <trkpt lat="45.829047" lon="9.200948">
        <time>1970-01-01T00:00:00+00:00</time>
        <ele>607.0</ele>
      </trkpt>
      <trkpt lat="45.829092" lon="9.200783">
        <time>1970-01-01T00:00:00+00:00</time>
        <ele>606.0</ele>
      </trkpt>
      <trkpt lat="45.828995" lon="9.200559">
        <time>1970-01-01T00:00:00+00:00</time>
        <ele>604.0</ele>
      </trkpt>
      <trkpt lat="45.828984" lon="9.200466">
        <time>1970-01-01T00:00:00+00:00</time>
        <ele>607.0</ele>
      </trkpt>
      <trkpt lat="45.829106" lon="9.200185">
        <time>1970-01-01T00:00:00+00:00</time>
        <ele>617.0</ele>
      </trkpt>
      <trkpt lat="45.829111" lon="9.200115">
        <time>1970-01-01T00:00:00+00:00</time>
        <ele>620.0</ele>
      </trkpt>
      <trkpt lat="45.829035" lon="9.200043">
        <time>1970-01-01T00:00:00+00:00</time>
        <ele>621.0</ele>
      </trkpt>
      <trkpt lat="45.828865" lon="9.199758">
        <time>1970-01-01T00:00:00+00:00</time>
        <ele>633.0</ele>
      </trkpt>
      <trkpt lat="45.828743" lon="9.199593">
        <time>1970-01-01T00:00:00+00:00</time>
        <ele>641.0</ele>
      </trkpt>
      <trkpt lat="45.828495" lon="9.199451">
        <time>1970-01-01T00:00:00+00:00</time>
        <ele>645.0</ele>
      </trkpt>
      <trkpt lat="45.828366" lon="9.199364">
        <time>1970-01-01T00:00:00+00:00</time>
        <ele>649.0</ele>
      </trkpt>
      <trkpt lat="45.828324" lon="9.199251">
        <time>1970-01-01T00:00:00+00:00</time>
        <ele>653.0</ele>
      </trkpt>
      <trkpt lat="45.828324" lon="9.199251">
        <time>1970-01-01T00:00:00+00:00</time>
        <ele>653.0</ele>
      </trkpt>
      <trkpt lat="45.828366" lon="9.199364">
        <time>1970-01-01T00:00:00+00:00</time>
        <ele>649.0</ele>
      </trkpt>
      <trkpt lat="45.828495" lon="9.199451">
        <time>1970-01-01T00:00:00+00:00</time>
        <ele>645.0</ele>
      </trkpt>
      <trkpt lat="45.828743" lon="9.199593">
        <time>1970-01-01T00:00:00+00:00</time>
        <ele>641.0</ele>
      </trkpt>
      <trkpt lat="45.828865" lon="9.199758">
        <time>1970-01-01T00:00:00+00:00</time>
        <ele>633.0</ele>
      </trkpt>
      <trkpt lat="45.829035" lon="9.200043">
        <time>1970-01-01T00:00:00+00:00</time>
        <ele>621.0</ele>
      </trkpt>
      <trkpt lat="45.829111" lon="9.200115">
        <time>1970-01-01T00:00:00+00:00</time>
        <ele>620.0</ele>
      </trkpt>
      <trkpt lat="45.829106" lon="9.200185">
        <time>1970-01-01T00:00:00+00:00</time>
        <ele>617.0</ele>
      </trkpt>
      <trkpt lat="45.828984" lon="9.200466">
        <time>1970-01-01T00:00:00+00:00</time>
        <ele>607.0</ele>
      </trkpt>
      <trkpt lat="45.828995" lon="9.200559">
        <time>1970-01-01T00:00:00+00:00</time>
        <ele>604.0</ele>
      </trkpt>
      <trkpt lat="45.829092" lon="9.200783">
        <time>1970-01-01T00:00:00+00:00</time>
        <ele>606.0</ele>
      </trkpt>
      <trkpt lat="45.829047" lon="9.200948">
        <time>1970-01-01T00:00:00+00:00</time>
        <ele>607.0</ele>
      </trkpt>
      <trkpt lat="45.829019" lon="9.200984">
        <time>1970-01-01T00:00:00+00:00</time>
        <ele>607.0</ele>
      </trkpt>
      <trkpt lat="45.828949" lon="9.201155">
        <time>1970-01-01T00:00:00+00:00</time>
        <ele>609.0</ele>
      </trkpt>
      <trkpt lat="45.828392" lon="9.201443">
        <time>1970-01-01T00:00:00+00:00</time>
        <ele>602.0</ele>
      </trkpt>
      <trkpt lat="45.828314" lon="9.201492">
        <time>1970-01-01T00:00:00+00:00</time>
        <ele>600.0</ele>
      </trkpt>
      <trkpt lat="45.82811" lon="9.201721">
        <time>1970-01-01T00:00:00+00:00</time>
        <ele>599.0</ele>
      </trkpt>
      <trkpt lat="45.827995" lon="9.201913">
        <time>1970-01-01T00:00:00+00:00</time>
        <ele>601.0</ele>
      </trkpt>
      <trkpt lat="45.827855" lon="9.202">
        <time>1970-01-01T00:00:00+00:00</time>
        <ele>601.0</ele>
      </trkpt>
      <trkpt lat="45.827609" lon="9.20211">
        <time>1970-01-01T00:00:00+00:00</time>
        <ele>600.0</ele>
      </trkpt>
      <trkpt lat="45.827236" lon="9.202362">
        <time>1970-01-01T00:00:00+00:00</time>
        <ele>600.0</ele>
      </trkpt>
      <trkpt lat="45.827064" lon="9.202591">
        <time>1970-01-01T00:00:00+00:00</time>
        <ele>600.0</ele>
      </trkpt>
      <trkpt lat="45.82686" lon="9.202989">
        <time>1970-01-01T00:00:00+00:00</time>
        <ele>604.0</ele>
      </trkpt>
      <trkpt lat="45.826755" lon="9.203291">
        <time>1970-01-01T00:00:00+00:00</time>
        <ele>613.0</ele>
      </trkpt>
      <trkpt lat="45.82663" lon="9.203414">
        <time>1970-01-01T00:00:00+00:00</time>
        <ele>612.0</ele>
      </trkpt>
      <trkpt lat="45.826544" lon="9.203552">
        <time>1970-01-01T00:00:00+00:00</time>
        <ele>612.0</ele>
      </trkpt>
      <trkpt lat="45.826426" lon="9.203597">
        <time>1970-01-01T00:00:00+00:00</time>
        <ele>607.0</ele>
      </trkpt>
      <trkpt lat="45.826318" lon="9.203684">
        <time>1970-01-01T00:00:00+00:00</time>
        <ele>604.0</ele>
      </trkpt>
      <trkpt lat="45.826098" lon="9.203932">
        <time>1970-01-01T00:00:00+00:00</time>
        <ele>600.0</ele>
      </trkpt>
      <trkpt lat="45.825999" lon="9.204115">
        <time>1970-01-01T00:00:00+00:00</time>
        <ele>602.0</ele>
      </trkpt>
      <trkpt lat="45.825852" lon="9.204238">
        <time>1970-01-01T00:00:00+00:00</time>
        <ele>600.0</ele>
      </trkpt>
      <trkpt lat="45.825712" lon="9.204412">
        <time>1970-01-01T00:00:00+00:00</time>
        <ele>599.0</ele>
      </trkpt>
      <trkpt lat="45.825498" lon="9.204531">
        <time>1970-01-01T00:00:00+00:00</time>
        <ele>591.0</ele>
      </trkpt>
      <trkpt lat="45.825345" lon="9.204746">
        <time>1970-01-01T00:00:00+00:00</time>
        <ele>595.0</ele>
      </trkpt>
      <trkpt lat="45.825211" lon="9.204787">
        <time>1970-01-01T00:00:00+00:00</time>
        <ele>592.0</ele>
      </trkpt>
      <trkpt lat="45.825052" lon="9.204879">
        <time>1970-01-01T00:00:00+00:00</time>
        <ele>590.0</ele>
      </trkpt>
      <trkpt lat="45.824931" lon="9.204879">
        <time>1970-01-01T00:00:00+00:00</time>
        <ele>584.0</ele>
      </trkpt>
      <trkpt lat="45.824672" lon="9.204998">
        <time>1970-01-01T00:00:00+00:00</time>
        <ele>578.0</ele>
      </trkpt>
      <trkpt lat="45.824443" lon="9.20519">
        <time>1970-01-01T00:00:00+00:00</time>
        <ele>572.0</ele>
      </trkpt>
      <trkpt lat="45.823987" lon="9.20567">
        <time>1970-01-01T00:00:00+00:00</time>
        <ele>564.0</ele>
      </trkpt>
      <trkpt lat="45.823932" lon="9.20578">
        <time>1970-01-01T00:00:00+00:00</time>
        <ele>564.0</ele>
      </trkpt>
      <trkpt lat="45.823926" lon="9.206062">
        <time>1970-01-01T00:00:00+00:00</time>
        <ele>573.0</ele>
      </trkpt>
      <trkpt lat="45.823853" lon="9.206128">
        <time>1970-01-01T00:00:00+00:00</time>
        <ele>570.0</ele>
      </trkpt>
      <trkpt lat="45.823737" lon="9.206157">
        <time>1970-01-01T00:00:00+00:00</time>
        <ele>563.0</ele>
      </trkpt>
      <trkpt lat="45.82369" lon="9.206256">
        <time>1970-01-01T00:00:00+00:00</time>
        <ele>562.0</ele>
      </trkpt>
      <trkpt lat="45.823667" lon="9.206431">
        <time>1970-01-01T00:00:00+00:00</time>
        <ele>564.0</ele>
      </trkpt>
      <trkpt lat="45.823553" lon="9.206736">
        <time>1970-01-01T00:00:00+00:00</time>
        <ele>562.0</ele>
      </trkpt>
      <trkpt lat="45.823505" lon="9.20728">
        <time>1970-01-01T00:00:00+00:00</time>
        <ele>561.0</ele>
      </trkpt>
      <trkpt lat="45.823601" lon="9.207893">
        <time>1970-01-01T00:00:00+00:00</time>
        <ele>565.0</ele>
      </trkpt>
      <trkpt lat="45.823769" lon="9.208299">
        <time>1970-01-01T00:00:00+00:00</time>
        <ele>572.0</ele>
      </trkpt>
      <trkpt lat="45.823884" lon="9.208842">
        <time>1970-01-01T00:00:00+00:00</time>
        <ele>578.0</ele>
      </trkpt>
      <trkpt lat="45.823884" lon="9.20936">
        <time>1970-01-01T00:00:00+00:00</time>
        <ele>572.0</ele>
      </trkpt>
      <trkpt lat="45.824004" lon="9.210007">
        <time>1970-01-01T00:00:00+00:00</time>
        <ele>569.0</ele>
      </trkpt>
      <trkpt lat="45.824159" lon="9.210619">
        <time>1970-01-01T00:00:00+00:00</time>
        <ele>569.0</ele>
      </trkpt>
      <trkpt lat="45.824228" lon="9.210759">
        <time>1970-01-01T00:00:00+00:00</time>
        <ele>570.0</ele>
      </trkpt>
      <trkpt lat="45.824295" lon="9.210814">
        <time>1970-01-01T00:00:00+00:00</time>
        <ele>573.0</ele>
      </trkpt>
      <trkpt lat="45.824328" lon="9.211068">
        <time>1970-01-01T00:00:00+00:00</time>
        <ele>567.0</ele>
      </trkpt>
      <trkpt lat="45.824304" lon="9.211256">
        <time>1970-01-01T00:00:00+00:00</time>
        <ele>563.0</ele>
      </trkpt>
      <trkpt lat="45.824324" lon="9.211386">
        <time>1970-01-01T00:00:00+00:00</time>
        <ele>561.0</ele>
      </trkpt>
      <trkpt lat="45.824288" lon="9.211451">
        <time>1970-01-01T00:00:00+00:00</time>
        <ele>559.0</ele>
      </trkpt>
      <trkpt lat="45.824208" lon="9.211476">
        <time>1970-01-01T00:00:00+00:00</time>
        <ele>558.0</ele>
      </trkpt>
      <trkpt lat="45.824091" lon="9.211446">
        <time>1970-01-01T00:00:00+00:00</time>
        <ele>558.0</ele>
      </trkpt>
      <trkpt lat="45.82402" lon="9.21143">
        <time>1970-01-01T00:00:00+00:00</time>
        <ele>559.0</ele>
      </trkpt>
      <trkpt lat="45.82378" lon="9.211531">
        <time>1970-01-01T00:00:00+00:00</time>
        <ele>564.0</ele>
      </trkpt>
      <trkpt lat="45.823762" lon="9.211566">
        <time>1970-01-01T00:00:00+00:00</time>
        <ele>565.0</ele>
      </trkpt>
      <trkpt lat="45.823766" lon="9.211643">
        <time>1970-01-01T00:00:00+00:00</time>
        <ele>563.0</ele>
      </trkpt>
      <trkpt lat="45.824058" lon="9.211505">
        <time>1970-01-01T00:00:00+00:00</time>
        <ele>557.0</ele>
      </trkpt>
      <trkpt lat="45.824073" lon="9.211566">
        <time>1970-01-01T00:00:00+00:00</time>
        <ele>556.0</ele>
      </trkpt>
      <trkpt lat="45.824112" lon="9.211701">
        <time>1970-01-01T00:00:00+00:00</time>
        <ele>554.0</ele>
      </trkpt>
      <trkpt lat="45.82399" lon="9.211767">
        <time>1970-01-01T00:00:00+00:00</time>
        <ele>555.0</ele>
      </trkpt>
    </trkseg>
  </trk>
</gpx>
